Change the Weather History Date:

Friday, August 30, 2013

  Actual Average Record
Temperature  
Mean Temperature 82 °F -  
Max Temperature 88 °F - - ()
Min Temperature 77 °F - - ()
Cooling Degree Days 17    
Growing Degree Days 32 (Base 50)    
Moisture  
Dew Point 73 °F    
Average Humidity 74    
Maximum Humidity 88    
Minimum Humidity 57    
Precipitation  
Precipitation 0.00 in - - ()
Sea Level Pressure  
Sea Level Pressure 30.00 in    
Wind  
Wind Speed 3 mph (West)    
Max Wind Speed 8 mph    
Max Gust Speed -    
Visibility 9 miles    
Events      
T = Trace of Precipitation, MM = Missing Value Source: NWS Daily Summary

Daily Weather History Graph

Daily Weather History Graph

Search for Another Location

Airport or City:

Trip Planner

Search our weather history database for the weather conditions in past years. The results will help you decide how hot, cold, wet, or windy it might be!

Date:

Astronomy

Aug. 30, 2013 Rise Set
Actual Time 6:34 AM CDT 7:21 PM CDT
Civil Twilight 6:10 AM CDT 7:45 PM CDT
Nautical Twilight 5:41 AM CDT 8:14 PM CDT
Astronomical Twilight 5:12 AM CDT 8:43 PM CDT
Moon 1:26 AM CDT (8/30) 3:23 PM CDT (8/30)
Length of Visible Light 13h 35m
Length of Day
12h 47m
Waning Crescent, 29% of the Moon is Illuminated
Aug 30
Waning Crescent
Sep 5
New
Sep 12
First Quarter
Sep 19
Full
Sep 26
Last Quarter

Hourly Weather History & Observations

Time (CDT) Temp. Heat Index Dew Point Humidity Pressure Visibility Wind Dir Wind Speed Gust Speed Precip Events Conditions
12:51 AM 79.0 °F - 72.0 °F 79% 30.02 in 10.0 mi South 4.6 mph - N/A   Clear
1:51 AM 79.0 °F - 71.1 °F 77% 30.01 in 10.0 mi South 4.6 mph - N/A   Clear
2:51 AM 79.0 °F - 72.0 °F 79% 30.00 in 9.0 mi SSW 4.6 mph - N/A   Clear
3:51 AM 79.0 °F - 72.0 °F 79% 30.00 in 6.0 mi Calm Calm - N/A   Haze
4:51 AM 77.0 °F - 73.0 °F 88% 30.00 in 4.0 mi Calm Calm - N/A   Clear
5:51 AM 77.0 °F - 73.0 °F 88% 30.01 in 4.0 mi NW 3.5 mph - N/A   Clear
6:51 AM 78.1 °F - 73.9 °F 87% 30.03 in 7.0 mi Calm Calm - N/A   Clear
7:51 AM 80.1 °F 85.1 °F 75.0 °F 85% 30.04 in 6.0 mi Calm Calm - N/A   Haze
8:51 AM 82.0 °F 87.9 °F 73.9 °F 76% 30.04 in 9.0 mi NNW 4.6 mph - N/A   Partly Cloudy
9:51 AM 82.9 °F 89.4 °F 73.9 °F 74% 30.05 in 10.0 mi NNW 5.8 mph - N/A   Partly Cloudy
10:32 AM 82.4 °F 88.2 °F 73.4 °F 74% 30.05 in 10.0 mi NNW 6.9 mph - N/A   Mostly Cloudy
10:39 AM 82.4 °F 88.2 °F 73.4 °F 74% 30.05 in 10.0 mi NNW 5.8 mph - N/A   Scattered Clouds
10:51 AM 82.9 °F 89.4 °F 73.9 °F 74% 30.05 in 10.0 mi NNW 8.1 mph - N/A   Mostly Cloudy
11:51 AM 84.9 °F 92.1 °F 73.9 °F 69% 30.05 in 10.0 mi Variable 5.8 mph - N/A   Clear
12:51 PM 86.0 °F 93.0 °F 73.0 °F 65% 30.03 in 10.0 mi Variable 3.5 mph - N/A   Partly Cloudy
1:51 PM 86.0 °F 92.2 °F 72.0 °F 63% 30.02 in 10.0 mi Variable 3.5 mph - N/A   Clear
2:51 PM 87.1 °F 92.8 °F 71.1 °F 59% 30.00 in 10.0 mi Variable 4.6 mph - N/A   Clear
3:51 PM 87.1 °F 92.0 °F 70.0 °F 57% 29.98 in 10.0 mi East 4.6 mph - N/A   Clear
4:51 PM 86.0 °F 90.7 °F 70.0 °F 59% 29.96 in 10.0 mi ESE 4.6 mph - N/A   Clear
5:51 PM 86.0 °F 90.7 °F 70.0 °F 59% 29.96 in 10.0 mi Calm Calm - N/A   Clear
6:51 PM 84.9 °F 90.1 °F 71.1 °F 63% 29.95 in 10.0 mi Calm Calm - N/A   Clear
7:51 PM 82.9 °F 88.8 °F 73.0 °F 72% 29.95 in 10.0 mi Calm Calm - N/A   Clear
8:51 PM 82.0 °F 87.4 °F 73.0 °F 74% 29.96 in 10.0 mi SW 3.5 mph - N/A   Clear
9:51 PM 82.0 °F 87.4 °F 73.0 °F 74% 29.96 in 10.0 mi Calm Calm - N/A   Clear
10:51 PM 80.1 °F 84.5 °F 73.9 °F 81% 29.96 in 10.0 mi Calm Calm - N/A   Clear
11:51 PM 80.1 °F 85.1 °F 75.0 °F 85% 29.96 in 10.0 mi SSW 4.6 mph - N/A   Clear